Regional Weather Roundup
Issued by NWS Green Bay, WI

Home | Current Version | Previous Version | Graphics & Text | Print | Product List | Glossary Off
Versions: 1 2 3 4 5 6 7 8 9 10 11 12 13 14 15 16 17 18 19 20 21 22 23 24 25 26 27 28 29 30 31 32 33 34 35 36 37 38 39 40 41 42 43 44 45 46 47 48 49 50

000
ASUS43 KGRB 241811
RWRGRB

NORTH-CENTRAL AND NORTHEAST WISCONSIN REGIONAL WEATHER ROUNDUP
NATIONAL WEATHER SERVICE GREEN BAY WI
100 PM CDT SAT JUN 24 2017

WIZ005-009-010>012-018-019-241900-
NORTH CENTRAL WISCONSIN

CITY           SKY/WX    TMP DP  RH WIND       PRES   REMARKS
IRONWOOD       CLOUDY    55  50  83 W10       29.92S
MANITOWISH WTR CLOUDY    54  54 100 W7        29.93R
ARBOR VITAE    CLOUDY    57  53  86 W7        29.92R
EAGLE RIVER    DRIZZLE   56  49  76 W7        29.91S
LAND O LAKES   CLOUDY    55  53  93 W6        29.93R
RHINELANDER    CLOUDY    60  50  69 W13       29.93R
PHILLIPS       CLOUDY    59  48  66 W8        29.93S
ANTIGO         CLOUDY    61  50  68 NW16      29.93S
TOMAHAWK       NOT AVBL
MERRILL        CLOUDY    60  47  63 W9        29.94S
$$

WIZ013-073-241900-
NORTHEAST WISCONSIN

CITY           SKY/WX    TMP DP  RH WIND       PRES   REMARKS
IRON MOUNTAIN  CLOUDY    60  54  80 NW10      29.87S
MARINETTE      LGT RAIN  60  56  86 W7        29.89
OCONTO         CLOUDY    66  53  64 W9G16     29.88R
$$

WIZ017-030-035>037-045-241900-
CENTRAL WISCONSIN

CITY           SKY/WX    TMP DP  RH WIND       PRES   REMARKS
MEDFORD        MOSUNNY   60  41  50 W8G16     29.95S
WAUSAU         CLOUDY    62  44  51 W15       29.93R
MOSINEE        PTSUNNY   63  45  51 W18       29.96R
MARSHFIELD     PTSUNNY   61  43  51 W20G26    29.97R
WISC RAPIDS    MOSUNNY   67  43  41 NW14G25   29.98S
STEVENS POINT  CLOUDY    63  41  43 W14G26    29.96S
WAUPACA        CLOUDY    66  44  45 W12       29.95S
SHAWANO        CLOUDY    65  51  60 W14       29.91S
CLINTONVILLE   CLOUDY    63  46  55 NW17G23   29.93R
WAUTOMA        MOSUNNY   67  46  47 W21G28    29.97S
$$

WIZ038-039-048-051-241900-
FOX VALLEY

CITY           SKY/WX    TMP DP  RH WIND       PRES   REMARKS
NWS GREEN BAY  PTSUNNY   68  54  60 W20G28    29.91R
APPLETON       PTSUNNY   64  46  52 W15G24    29.93R
OSHKOSH        CLOUDY    67  46  47 W15G23    29.94R
FOND DU LAC    PTSUNNY   67  43  41 W14G22    29.96R
$$

WIZ022-050-052-241900-
EAST CENTRAL WISCONSIN

CITY           SKY/WX    TMP DP  RH WIND       PRES   REMARKS
EPHRAIM        CLOUDY    61  56  83 CALM      29.87S
WASHINGTON ISL CLOUDY    63  55  74 W8        29.86R THUNDER
STURGEON BAY     N/A     60  56  86 NW14        N/A
MANITOWOC      PTSUNNY   68  50  52 W18G25    29.91R
SHEBOYGAN      MOSUNNY   68  49  50 W17G24    29.93R
$$

LMZ563-521-522-541>543-241900-
LAKESHORE

STATION/POSITION TIME  TEMP    WIND        PRES    VSBY  WAVE
                       AIR SEA DIR/SP/G                  HT/PER
                 (UTC) (F)     (DEG/KT/KT) (MB)    (MI)  (FT/S)
SHEBOYGAN LKSHOR 1800   67     260/ 19/ 22 1012.9R
KEWAUNEE LKSHORE 1748   65     280/  6/  8 1011.7R
NORTHPORT PIER   1740   63     320/  7/  9 1011.2R
N MID LAKE BUOY  1750   60 58  220/  4/  6 1011.8R         1
S GREEN BAY BUOY 1800   65     250/ 16/ 19 1011.6
CHAMBERS ISLAND  1740   60     190/  4/  9 1011.2R
MENOMINEE LKSHOR 1748          210/  6/  8 1011.1R
$$




USA.gov is the U.S. government's official web portal to all federal, state and local government web resources and services.